When you browse on this site, cookies collect data to enhance your experience and personalize the content and advertising you see.
Visit our Privacy Policy to learn more. By continuing to use the site, you agree to this use of cookies and data.
  • Em Portugal
  • Lista de países
  • Para 7 dias
  • Temperatura da água
  • Mapas de satélite
  • Mapa do tempo
  • Widgets de tempo
  • user-avatar
    Iniciar Sessão

    Previsão horária em Soelden

    Hoje, 23 Maio, Quinta-feira

    Tempo Temperatura Precipitação Vento Pressão Humidade
    00:00 -2°C° 0 mm 2 m/s 582 mmHg 87%
    01:00 -3°C° 0 mm 2 m/s 581 mmHg 87%
    02:00 -3°C° 0 mm 2 m/s 581 mmHg 86%
    03:00 -4°C° 0 mm 2 m/s 581 mmHg 86%
    04:00 -4°C° 0 mm 2 m/s 581 mmHg 86%
    05:00 -2°C° 0 mm 2 m/s 582 mmHg 80%
    06:00 +2°C° 0 mm 1 m/s 583 mmHg 75%
    07:00 +4°C° 0 mm 1 m/s 583 mmHg 70%
    08:00 +6°C° 0 mm 1 m/s 584 mmHg 65%
    09:00 +8°C° 0 mm 1 m/s 585 mmHg 60%
    10:00 +9°C° 0 mm 0 m/s 586 mmHg 55%
    11:00 +10°C° 0 mm 0 m/s 586 mmHg 53%
    12:00 +11°C° 0 mm 0 m/s 587 mmHg 50%
    13:00 +12°C° 0 mm 0 m/s 587 mmHg 47%
    14:00 +12°C° 0 mm 0 m/s 587 mmHg 48%
    15:00 +12°C° 0 mm 1 m/s 586 mmHg 48%
    16:00 +12°C° 0 mm 1 m/s 586 mmHg 49%
    17:00 +10°C° 0 mm 1 m/s 585 mmHg 55%
    18:00 +9°C° 0 mm 1 m/s 584 mmHg 62%
    19:00 +7°C° 0 mm 1 m/s 583 mmHg 68%
    20:00 +5°C° 0 mm 1 m/s 583 mmHg 73%
    21:00 +4°C° 0 mm 1 m/s 582 mmHg 78%
    22:00 +2°C° 0 mm 1 m/s 582 mmHg 82%
    23:00 +2°C° 0 mm 1 m/s 581 mmHg 83%

    Amanhã, 24 Maio, Sexta-feira

    Tempo Temperatura Precipitação Vento Pressão Humidade
    00:00 +1°C° 0 mm 1 m/s 581 mmHg 83%
    01:00 +1°C° 0 mm 1 m/s 581 mmHg 84%
    02:00 +1°C° 0 mm 1 m/s 581 mmHg 84%
    03:00 0°C° 0 mm 1 m/s 581 mmHg 84%
    04:00 0°C° 0 mm 1 m/s 580 mmHg 84%
    05:00 +2°C° 0 mm 1 m/s 581 mmHg 78%
    06:00 +3°C° 0 mm 0 m/s 582 mmHg 72%
    07:00 +5°C° 0 mm 0 m/s 583 mmHg 66%
    08:00 +7°C° 0 mm 0 m/s 584 mmHg 60%
    09:00 +8°C° 0 mm 0 m/s 584 mmHg 53%
    10:00 +11°C° 0 mm 1 m/s 585 mmHg 46%
    11:00 +12°C° 0 mm 1 m/s 585 mmHg 44%
    12:00 +13°C° 0 mm 1 m/s 585 mmHg 43%
    13:00 +14°C° 0 mm 1 m/s 586 mmHg 41%
    14:00 +13°C° 0.1 mm 1 m/s 585 mmHg 43%
    15:00 +13°C° 0.1 mm 1 m/s 585 mmHg 46%
    16:00 +12°C° 0.1 mm 2 m/s 584 mmHg 48%
    17:00 +11°C° 0.4 mm 1 m/s 583 mmHg 58%
    18:00 +9°C° 0.4 mm 1 m/s 583 mmHg 68%
    19:00 +8°C° 0.4 mm 1 m/s 582 mmHg 78%
    20:00 +6°C° 0.3 mm 1 m/s 582 mmHg 83%
    21:00 +5°C° 0.3 mm 1 m/s 581 mmHg 88%
    22:00 +3°C° 0.3 mm 0 m/s 581 mmHg 93%
    23:00 +2°C° 0.1 mm 0 m/s 581 mmHg 93%

    Depois de amanhã, 25 Maio, Sábado

    Tempo Temperatura Precipitação Vento Pressão Humidade
    00:00 +2°C° 0.1 mm 0 m/s 581 mmHg 93%
    01:00 +2°C° 0.1 mm 0 m/s 580 mmHg 93%
    02:00 +2°C° 0.2 mm 0 m/s 580 mmHg 93%
    03:00 +2°C° 0.2 mm 0 m/s 580 mmHg 93%
    04:00 +1°C° 0.2 mm 0 m/s 580 mmHg 93%
    05:00 +3°C° 0.2 mm 0 m/s 581 mmHg 88%
    06:00 +4°C° 0.2 mm 0 m/s 581 mmHg 83%
    07:00 +5°C° 0.2 mm 0 m/s 582 mmHg 78%
    08:00 +6°C° 0.3 mm 0 m/s 583 mmHg 72%
    09:00 +9°C° 0.3 mm 1 m/s 583 mmHg 66%
    10:00 +10°C° 0.3 mm 1 m/s 584 mmHg 60%
    11:00 +11°C° 0.3 mm 1 m/s 584 mmHg 58%
    12:00 +11°C° 0.3 mm 1 m/s 585 mmHg 56%
    13:00 +12°C° 0.3 mm 1 m/s 585 mmHg 54%
    14:00 +11°C° 0.5 mm 1 m/s 585 mmHg 57%
    15:00 +11°C° 0.5 mm 1 m/s 584 mmHg 61%
    16:00 +9°C° 0.5 mm 2 m/s 584 mmHg 64%
    17:00 +9°C° 0.8 mm 1 m/s 584 mmHg 71%
    18:00 +8°C° 0.8 mm 1 m/s 583 mmHg 78%
    19:00 +7°C° 0.8 mm 1 m/s 583 mmHg 84%
    20:00 +5°C° 0.6 mm 0 m/s 582 mmHg 88%
    21:00 +4°C° 0.6 mm 0 m/s 582 mmHg 91%
    22:00 +3°C° 0.6 mm 0 m/s 582 mmHg 94%
    23:00 +3°C° 0.2 mm 0 m/s 582 mmHg 94%

    26 Maio, Domingo

    Tempo Temperatura Precipitação Vento Pressão Humidade
    00:00 +2°C° 0.2 mm 0 m/s 582 mmHg 94%
    01:00 +3°C° 0.2 mm 1 m/s 581 mmHg 94%
    02:00 +3°C° 0.2 mm 1 m/s 581 mmHg 94%
    03:00 +3°C° 0.2 mm 1 m/s 581 mmHg 93%
    04:00 +3°C° 0.2 mm 1 m/s 581 mmHg 93%
    05:00 +4°C° 0.1 mm 1 m/s 582 mmHg 88%
    06:00 +5°C° 0.1 mm 1 m/s 582 mmHg 83%
    07:00 +7°C° 0.1 mm 1 m/s 583 mmHg 78%
    08:00 +8°C° 0.1 mm 1 m/s 584 mmHg 71%
    09:00 +10°C° 0.1 mm 1 m/s 585 mmHg 64%
    10:00 +12°C° 0.1 mm 1 m/s 586 mmHg 57%
    11:00 +13°C° 0.3 mm 1 m/s 586 mmHg 56%
    12:00 +13°C° 0.3 mm 1 m/s 586 mmHg 56%
    13:00 +14°C° 0.3 mm 1 m/s 586 mmHg 55%
    14:00 +13°C° 0.7 mm 1 m/s 586 mmHg 57%
    15:00 +13°C° 0.7 mm 1 m/s 585 mmHg 60%
    16:00 +12°C° 0.7 mm 2 m/s 585 mmHg 62%
    17:00 +11°C° 0.6 mm 1 m/s 584 mmHg 70%
    18:00 +9°C° 0.6 mm 1 m/s 584 mmHg 78%
    19:00 +8°C° 0.6 mm 1 m/s 583 mmHg 86%
    20:00 +7°C° 0.4 mm 1 m/s 583 mmHg 89%
    21:00 +6°C° 0.4 mm 1 m/s 582 mmHg 92%
    22:00 +5°C° 0.4 mm 1 m/s 582 mmHg 96%
    23:00 +5°C° 0.3 mm 1 m/s 582 mmHg 96%

    27 Maio, Segunda-feira

    Tempo Temperatura Precipitação Vento Pressão Humidade
    00:00 +3°C° 0.3 mm 0 m/s 582 mmHg 96%
    01:00 +3°C° 0.3 mm 0 m/s 581 mmHg 96%
    02:00 +4°C° 0 mm 1 m/s 581 mmHg 96%
    03:00 +4°C° 0 mm 1 m/s 580 mmHg 95%
    04:00 +3°C° 0 mm 1 m/s 580 mmHg 95%
    05:00 +4°C° 0 mm 1 m/s 580 mmHg 90%
    06:00 +6°C° 0 mm 1 m/s 581 mmHg 86%
    07:00 +7°C° 0 mm 1 m/s 581 mmHg 82%
    08:00 +8°C° 0 mm 1 m/s 582 mmHg 75%
    09:00 +9°C° 0 mm 1 m/s 582 mmHg 68%
    10:00 +10°C° 0 mm 1 m/s 583 mmHg 61%
    11:00 +10°C° 0.4 mm 1 m/s 582 mmHg 64%
    12:00 +9°C° 0.4 mm 2 m/s 582 mmHg 66%
    13:00 +9°C° 0.4 mm 2 m/s 582 mmHg 69%
    14:00 +8°C° 1.4 mm 2 m/s 581 mmHg 74%
    15:00 +8°C° 1.4 mm 1 m/s 580 mmHg 79%
    16:00 +7°C° 1.4 mm 1 m/s 580 mmHg 83%
    17:00 +7°C° 1.8 mm 1 m/s 579 mmHg 87%
    18:00 +5°C° 1.8 mm 0 m/s 579 mmHg 90%
    19:00 +4°C° 1.8 mm 0 m/s 578 mmHg 93%
    20:00 +4°C° 0.8 mm 0 m/s 578 mmHg 94%
    21:00 +4°C° 0.8 mm 0 m/s 578 mmHg 95%
    22:00 +3°C° 0.8 mm 0 m/s 578 mmHg 96%
    23:00 +3°C° 0.2 mm 0 m/s 578 mmHg 96%

    28 Maio, Terça-feira

    Tempo Temperatura Precipitação Vento Pressão Humidade
    00:00 +3°C° 0.2 mm 0 m/s 577 mmHg 96%
    01:00 +2°C° 0.2 mm 0 m/s 577 mmHg 96%
    02:00 +2°C° 0 mm 0 m/s 577 mmHg 96%
    03:00 +2°C° 0 mm 0 m/s 576 mmHg 96%
    04:00 +1°C° 0 mm 0 m/s 576 mmHg 95%
    05:00 +2°C° 0.2 mm 0 m/s 577 mmHg 92%
    06:00 +3°C° 0.2 mm 0 m/s 577 mmHg 89%
    07:00 +4°C° 0.2 mm 0 m/s 578 mmHg 86%
    08:00 +6°C° 0.5 mm 1 m/s 578 mmHg 81%
    09:00 +7°C° 0.5 mm 1 m/s 579 mmHg 75%
    10:00 +8°C° 0.5 mm 1 m/s 579 mmHg 70%
    11:00 +7°C° 1.9 mm 2 m/s 579 mmHg 73%
    12:00 +6°C° 1.9 mm 2 m/s 579 mmHg 76%
    13:00 +6°C° 1.9 mm 2 m/s 579 mmHg 78%
    14:00 +5°C° 3.3 mm 2 m/s 578 mmHg 83%
    15:00 +3°C° 3.3 mm 2 m/s 577 mmHg 88%
    16:00 +2°C° 3.3 mm 2 m/s 576 mmHg 92%
    17:00 +2°C° 0.9 mm 2 m/s 576 mmHg 92%
    18:00 +1°C° 0.9 mm 2 m/s 577 mmHg 92%
    19:00 +1°C° 0.9 mm 2 m/s 577 mmHg 91%
    20:00 -1°C° 0.5 mm 2 m/s 577 mmHg 91%
    21:00 -1°C° 0.5 mm 2 m/s 577 mmHg 92%
    22:00 -1°C° 0.5 mm 2 m/s 577 mmHg 92%
    23:00 -2°C° 0.5 mm 2 m/s 577 mmHg 92%
    Mostrar mais